Terminal Aerodrome Forecast
Issued by NWS

Home | Current Version | Previous Version | Text Only | Print | Product List | Glossary On
Versions: 1 2 3 4 5 6 7 8 9 10 11 12 13 14 15 16 17 18 19 20 21 22 23 24 25 26 27 28
000
FTUS45 KREV 171700
TAFTRK
TAF
KTRK 171724Z 1718/1818 20015G28KT P6SM BKN200
     FM172100 22012G24KT 3SM FU SCT025 SCT080
     FM180300 22006KT P6SM SCT080 SCT200=

USA.gov is the U.S. government's official web portal to all federal, state and local government web resources and services.